Content
SEND FEEDBACK

Daily
Averages
Monthly
Summary
United States of America

LINCOLN, ILLINOIS


Home > North America > United States > Illinois
Elevation: 555 feet     Latitude: 40 09N     Longitude: 089 24W

WEATHER
 
SELECT A DAY
Number of Records: 332,406;   Date Range: 9/6/01 - 11/24/14
 
SHARE

PRINT THIS DATA

[ ← Previous Day ]
WEATHER ALMANAC - JULY 13, 2013
[ Next Day → ]
[ °C ]   °F
Weather ElementAverageHighLow
Temperature73.5 °F84.6 °F (4:55 pm)59.4 °F (5:15 am)
Dewpoint61.5 °F66.6 °F (8:35 pm)57.4 °F (5:15 am)
Humidity69.1 %94 % (2:35 am)44 % (12:55 pm)
Barometer30.09 in30.13 in (7:55 am)30.05 in (5:15 pm)
Wind Speed1.7 mph9.2 mph (1:35 pm)
Weather ElementAverage
Visibility10 mi
Wind DirectionNNE (29.3 °)

Weather ElementTotal
Precipitation---
Cooling Degree Days7 (Base 65)
Growing Degree Days22 (Base 50)
Averaged from 71 records on July 13, 2013
WEATHER CONDITIONS BREAKOUT
WIND DIRECTION BREAKOUT
WEATHER BY HOUR - JULY 13, 2013
[ °C ]   °F
Local TimeTemperatureDewpointHumidityBarometerVisibilityWind DirectionWind SpeedGust SpeedPrecipitationEventsConditions
12:35 AM65.1 °F61.2 °F87 %30.07 in10.0 miCalmClear
12:55 AM64.4 °F61.0 °F89 %30.07 in10.0 miCalmClear
1:15 AM64.4 °F61.0 °F89 %30.07 in10.0 miCalmClear
1:35 AM64.2 °F60.8 °F89 %30.07 in10.0 miCalmClear
1:55 AM63.3 °F60.3 °F90 %30.08 in10.0 miCalmClear
2:15 AM62.8 °F60.1 °F91 %30.08 in10.0 miCalmClear
2:35 AM61.9 °F60.1 °F94 %30.09 in10.0 miCalmClear
2:55 AM62.6 °F59.9 °F91 %30.10 in10.0 miCalmClear
3:15 AM61.0 °F59.0 °F93 %30.10 in10.0 miCalmClear
3:35 AM62.6 °F59.9 °F91 %30.10 in10.0 miCalmClear
3:55 AM61.0 °F58.8 °F93 %30.10 in10.0 miCalmClear
4:15 AM61.7 °F59.5 °F93 %30.10 in10.0 miCalmClear
4:35 AM60.1 °F58.3 °F94 %30.09 in7.0 miCalmClear
4:55 AM60.4 °F58.8 °F94 %30.09 in10.0 miCalmClear
5:15 AM59.4 °F57.4 °F93 %30.09 in10.0 miCalmClear
5:35 AM59.4 °F57.4 °F93 %30.10 in10.0 miCalmClear
5:55 AM59.7 °F57.7 °F93 %30.10 in10.0 miCalmClear
6:15 AM60.4 °F58.1 °F92 %30.09 in10.0 miCalmClear
6:35 AM61.3 °F58.6 °F91 %30.10 in10.0 miCalmClear
6:55 AM63.9 °F59.9 °F87 %30.11 in10.0 miCalmClear
7:15 AM66.0 °F60.3 °F82 %30.11 in10.0 miCalmClear
7:35 AM68.0 °F61.0 °F78 %30.11 in10.0 miCalmClear
7:55 AM69.4 °F61.9 °F77 %30.13 in10.0 miCalmClear
8:15 AM71.6 °F62.4 °F73 %30.12 in10.0 miCalmClear
8:35 AM72.9 °F63.3 °F72 %30.11 in10.0 miCalmClear
8:55 AM74.3 °F64.0 °F70 %30.12 in10.0 miCalmClear
9:15 AM75.9 °F63.7 °F66 %30.12 in10.0 miEast (100°)3.5 mphClear
9:35 AM77.0 °F63.5 °F63 %30.13 in10.0 miCalmClear
9:55 AM78.1 °F62.6 °F59 %30.12 in10.0 miCalmClear
10:15 AM79.2 °F62.2 °F56 %30.11 in10.0 miEast (90°)4.6 mphClear
10:35 AM79.3 °F59.7 °F51 %30.12 in10.0 miCalmClear
10:55 AM80.1 °F57.9 °F47 %30.11 in10.0 miEast (100°)3.5 mphClear
11:15 AM80.8 °F59.0 °F47 %30.10 in10.0 miESE (110°)3.5 mphClear
11:35 AM81.1 °F58.8 °F46 %30.10 in10.0 miEast (90°)6.9 mphClear
11:55 AM81.0 °F60.1 °F49 %30.10 in10.0 miESE (110°)5.8 mphClear
12:15 PM81.7 °F60.3 °F48 %30.10 in10.0 miCalmClear
12:35 PM82.2 °F59.7 °F46 %30.09 in10.0 miCalmClear
12:55 PM83.3 °F59.0 °F44 %30.09 in10.0 miESE (110°)5.8 mphScattered Clouds
1:15 PM82.9 °F60.4 °F46 %30.09 in10.0 miEast (90°)8.1 mphScattered Clouds
1:35 PM82.6 °F61.2 °F48 %30.09 in10.0 miENE (70°)9.2 mphMostly Cloudy
1:55 PM82.4 °F60.4 °F47 %30.08 in10.0 miESE (120°)4.6 mphScattered Clouds
2:15 PM83.1 °F59.5 °F45 %30.08 in10.0 miESE (110°)5.8 mphScattered Clouds
2:35 PM83.7 °F60.3 °F45 %30.07 in10.0 miEast (100°)3.5 mphClear
2:55 PM84.2 °F60.1 °F44 %30.07 in10.0 miEast (80°)5.8 mphScattered Clouds
3:15 PM84.2 °F59.9 °F44 %30.07 in10.0 miEast (100°)3.5 mphScattered Clouds
3:35 PM82.4 °F60.3 °F47 %30.07 in10.0 miCalmClear
3:55 PM82.6 °F60.6 °F47 %30.07 in10.0 miEast (100°)6.9 mphScattered Clouds
4:15 PM83.8 °F60.3 °F45 %30.06 in10.0 miENE (70°)5.8 mphClear
4:35 PM84.0 °F60.4 °F45 %30.06 in10.0 miEast (90°)6.9 mphScattered Clouds
4:55 PM84.6 °F61.5 °F46 %30.06 in10.0 miEast (100°)5.8 mphScattered Clouds
5:15 PM84.2 °F61.0 °F45 %30.05 in10.0 miCalmClear
5:35 PM83.5 °F62.1 °F48 %30.05 in10.0 miENE (70°)3.5 mphScattered Clouds
5:55 PM82.2 °F62.8 °F52 %30.05 in10.0 miCalmScattered Clouds
6:15 PM82.6 °F62.1 °F50 %30.05 in10.0 miEast (80°)3.5 mphScattered Clouds
6:35 PM82.2 °F62.2 °F51 %30.05 in10.0 miENE (70°)3.5 mphClear
6:55 PM81.3 °F63.7 °F55 %30.05 in10.0 miCalmClear
7:15 PM81.0 °F64.6 °F57 %30.05 in10.0 miCalmClear
7:35 PM80.4 °F64.9 °F59 %30.05 in10.0 miCalmScattered Clouds
7:55 PM77.2 °F66.2 °F69 %30.05 in10.0 miCalmClear
8:15 PM77.0 °F65.7 °F68 %30.06 in10.0 miCalmClear
8:35 PM74.3 °F66.6 °F77 %30.06 in10.0 miCalmClear
8:55 PM74.3 °F65.8 °F75 %30.06 in10.0 miCalmClear
9:15 PM71.8 °F66.2 °F83 %30.07 in10.0 miCalmClear
9:35 PM71.4 °F65.8 °F82 %30.08 in10.0 miCalmClear
9:55 PM71.4 °F65.5 °F81 %30.08 in10.0 miCalmClear
10:15 PM70.5 °F65.7 °F85 %30.08 in10.0 miCalmClear
10:35 PM70.7 °F65.3 °F83 %30.08 in10.0 miCalmClear
10:55 PM70.2 °F64.9 °F83 %30.09 in10.0 miENE (60°)4.6 mphClear
11:15 PM69.8 °F65.3 °F86 %30.09 in10.0 miENE (60°)3.5 mphClear
11:35 PM69.8 °F64.9 °F84 %30.09 in10.0 miCalmClear
11:55 PM69.4 °F64.8 °F85 %30.09 in10.0 miCalmClear
Hourly data recorded from KAAA, located miles away from Lincoln, Illinois







STORIES FROM OUR PARTNERS